When you browse on this site, cookies collect data to enhance your experience and personalize the content and advertising you see.
Visit our Privacy Policy to learn more. By continuing to use the site, you agree to this use of cookies and data.
  • In Sweden
  • List of Countries
  • For 7 days
  • Water Temperature
  • Satellite Maps
  • Weather Map
  • Weather Widgets
  • user-avatar
    Login

    Hourly Weather Czuple

    Today, 27 May, Monday

    Time Temperature Precipitation Wind Pressure Humidity
    00:00 +13°C° 0 mm 3 mps 748 mmHg 85%
    01:00 +13°C° 0 mm 3 mps 748 mmHg 83%
    02:00 +13°C° 0 mm 4 mps 748 mmHg 84%
    03:00 +13°C° 0 mm 4 mps 748 mmHg 85%
    04:00 +13°C° 0 mm 4 mps 747 mmHg 85%
    05:00 +15°C° 0 mm 4 mps 747 mmHg 81%
    06:00 +17°C° 0 mm 4 mps 747 mmHg 77%
    07:00 +19°C° 0 mm 5 mps 747 mmHg 71%
    08:00 +20°C° 0 mm 5 mps 747 mmHg 66%
    09:00 +22°C° 0 mm 6 mps 747 mmHg 60%
    10:00 +23°C° 0 mm 6 mps 747 mmHg 55%
    11:00 +23°C° 0 mm 6 mps 747 mmHg 53%
    12:00 +24°C° 0 mm 6 mps 747 mmHg 52%
    13:00 +24°C° 0 mm 6 mps 747 mmHg 50%
    14:00 +25°C° 0 mm 5 mps 747 mmHg 51%
    15:00 +25°C° 0 mm 5 mps 746 mmHg 52%
    16:00 +25°C° 0 mm 5 mps 746 mmHg 53%
    17:00 +23°C° 0 mm 4 mps 746 mmHg 59%
    18:00 +23°C° 0 mm 2 mps 746 mmHg 66%
    19:00 +21°C° 0 mm 1 mps 745 mmHg 72%
    20:00 +20°C° 0 mm 1 mps 746 mmHg 75%
    21:00 +19°C° 0 mm 1 mps 746 mmHg 78%
    22:00 +18°C° 0 mm 1 mps 746 mmHg 81%
    23:00 +17°C° 0.6 mm 2 mps 745 mmHg 85%

    Tomorrow, 28 May, Tuesday

    Time Temperature Precipitation Wind Pressure Humidity
    00:00 +17°C° 0.6 mm 2 mps 745 mmHg 88%
    01:00 +17°C° 0.6 mm 2 mps 745 mmHg 92%
    02:00 +17°C° 2.7 mm 2 mps 744 mmHg 93%
    03:00 +17°C° 2.7 mm 2 mps 744 mmHg 95%
    04:00 +17°C° 2.7 mm 2 mps 743 mmHg 97%
    05:00 +17°C° 1.7 mm 3 mps 743 mmHg 94%
    06:00 +17°C° 1.7 mm 4 mps 743 mmHg 91%
    07:00 +18°C° 1.7 mm 4 mps 743 mmHg 89%
    08:00 +17°C° 0.2 mm 5 mps 743 mmHg 87%
    09:00 +17°C° 0.2 mm 5 mps 743 mmHg 85%
    10:00 +17°C° 0.2 mm 5 mps 743 mmHg 84%
    11:00 +17°C° 0.3 mm 5 mps 743 mmHg 84%
    12:00 +17°C° 0.3 mm 5 mps 743 mmHg 85%
    13:00 +17°C° 0.3 mm 5 mps 743 mmHg 86%
    14:00 +16°C° 0.1 mm 5 mps 744 mmHg 85%
    15:00 +15°C° 0.1 mm 6 mps 744 mmHg 85%
    16:00 +14°C° 0.1 mm 6 mps 744 mmHg 85%
    17:00 +13°C° 0.1 mm 6 mps 745 mmHg 85%
    18:00 +13°C° 0.1 mm 6 mps 745 mmHg 86%
    19:00 +12°C° 0.1 mm 5 mps 745 mmHg 86%
    20:00 +12°C° 0.2 mm 5 mps 746 mmHg 87%
    21:00 +10°C° 0.2 mm 5 mps 746 mmHg 87%
    22:00 +10°C° 0.2 mm 5 mps 747 mmHg 88%
    23:00 +10°C° 0.4 mm 5 mps 747 mmHg 89%

    Day after tomorrow, 29 May, Wednesday

    Time Temperature Precipitation Wind Pressure Humidity
    00:00 +10°C° 0.4 mm 5 mps 747 mmHg 90%
    01:00 +9°C° 0.4 mm 5 mps 748 mmHg 92%
    02:00 +9°C° 0.3 mm 5 mps 748 mmHg 92%
    03:00 +10°C° 0.3 mm 4 mps 749 mmHg 92%
    04:00 +10°C° 0.3 mm 4 mps 749 mmHg 92%
    05:00 +10°C° 0 mm 4 mps 750 mmHg 90%
    06:00 +10°C° 0 mm 4 mps 751 mmHg 87%
    07:00 +10°C° 0 mm 4 mps 751 mmHg 85%
    08:00 +11°C° 0 mm 4 mps 752 mmHg 79%
    09:00 +13°C° 0 mm 4 mps 752 mmHg 72%
    10:00 +14°C° 0 mm 4 mps 753 mmHg 66%
    11:00 +15°C° 0 mm 4 mps 753 mmHg 63%
    12:00 +15°C° 0 mm 4 mps 754 mmHg 60%
    13:00 +17°C° 0 mm 4 mps 754 mmHg 57%
    14:00 +17°C° 0 mm 4 mps 754 mmHg 57%
    15:00 +17°C° 0 mm 4 mps 754 mmHg 57%
    16:00 +17°C° 0 mm 4 mps 754 mmHg 57%
    17:00 +15°C° 0 mm 4 mps 754 mmHg 63%
    18:00 +14°C° 0 mm 4 mps 755 mmHg 69%
    19:00 +13°C° 0 mm 3 mps 755 mmHg 76%
    20:00 +11°C° 0 mm 3 mps 755 mmHg 77%
    21:00 +9°C° 0 mm 3 mps 756 mmHg 79%
    22:00 +8°C° 0 mm 3 mps 756 mmHg 81%
    23:00 +7°C° 0 mm 3 mps 756 mmHg 78%

    30 May, Thursday

    Time Temperature Precipitation Wind Pressure Humidity
    00:00 +6°C° 0 mm 2 mps 757 mmHg 76%
    01:00 +5°C° 0 mm 2 mps 757 mmHg 74%
    02:00 +5°C° 0 mm 2 mps 757 mmHg 75%
    03:00 +5°C° 0 mm 2 mps 757 mmHg 76%
    04:00 +4°C° 0 mm 2 mps 757 mmHg 77%
    05:00 +6°C° 0 mm 2 mps 757 mmHg 72%
    06:00 +8°C° 0 mm 2 mps 757 mmHg 68%
    07:00 +10°C° 0 mm 2 mps 757 mmHg 63%
    08:00 +12°C° 0 mm 2 mps 757 mmHg 58%
    09:00 +14°C° 0 mm 2 mps 757 mmHg 53%
    10:00 +15°C° 0 mm 2 mps 757 mmHg 47%
    11:00 +16°C° 0 mm 2 mps 757 mmHg 46%
    12:00 +17°C° 0 mm 2 mps 756 mmHg 44%
    13:00 +18°C° 0 mm 2 mps 756 mmHg 43%
    14:00 +18°C° 0 mm 2 mps 756 mmHg 44%
    15:00 +19°C° 0 mm 2 mps 756 mmHg 45%
    16:00 +19°C° 0 mm 2 mps 756 mmHg 46%
    17:00 +18°C° 0 mm 2 mps 756 mmHg 52%
    18:00 +16°C° 0 mm 1 mps 756 mmHg 59%
    19:00 +15°C° 0 mm 1 mps 756 mmHg 65%
    20:00 +14°C° 0 mm 1 mps 756 mmHg 68%
    21:00 +13°C° 0 mm 1 mps 757 mmHg 70%
    22:00 +10°C° 0 mm 2 mps 757 mmHg 73%
    23:00 +10°C° 0 mm 2 mps 757 mmHg 74%

    31 May, Friday

    Time Temperature Precipitation Wind Pressure Humidity
    00:00 +10°C° 0 mm 2 mps 757 mmHg 75%
    01:00 +9°C° 0 mm 2 mps 757 mmHg 76%
    02:00 +9°C° 0 mm 2 mps 757 mmHg 77%
    03:00 +9°C° 0 mm 2 mps 756 mmHg 79%
    04:00 +9°C° 0 mm 2 mps 756 mmHg 80%
    05:00 +12°C° 0 mm 2 mps 756 mmHg 77%
    06:00 +14°C° 0 mm 2 mps 757 mmHg 75%
    07:00 +15°C° 0 mm 2 mps 757 mmHg 73%
    08:00 +17°C° 0.2 mm 2 mps 757 mmHg 71%
    09:00 +18°C° 0.2 mm 2 mps 757 mmHg 69%
    10:00 +20°C° 0.2 mm 2 mps 757 mmHg 67%
    11:00 +20°C° 0.8 mm 2 mps 757 mmHg 70%
    12:00 +20°C° 0.8 mm 2 mps 757 mmHg 73%
    13:00 +19°C° 0.8 mm 2 mps 757 mmHg 75%
    14:00 +19°C° 0.4 mm 2 mps 756 mmHg 76%
    15:00 +19°C° 0.4 mm 3 mps 756 mmHg 78%
    16:00 +19°C° 0.4 mm 3 mps 756 mmHg 79%
    17:00 +18°C° 0 mm 2 mps 756 mmHg 81%
    18:00 +18°C° 0 mm 2 mps 757 mmHg 84%
    19:00 +17°C° 0 mm 2 mps 757 mmHg 87%
    20:00 +16°C° 0 mm 2 mps 757 mmHg 90%
    21:00 +15°C° 0 mm 2 mps 757 mmHg 92%
    22:00 +14°C° 0 mm 2 mps 757 mmHg 95%
    23:00 +13°C° 0 mm 2 mps 757 mmHg 95%

    1 June, Saturday

    Time Temperature Precipitation Wind Pressure Humidity
    00:00 +13°C° 0 mm 2 mps 758 mmHg 96%
    01:00 +12°C° 0 mm 2 mps 758 mmHg 97%
    02:00 +12°C° 0 mm 2 mps 758 mmHg 96%
    03:00 +12°C° 0 mm 2 mps 758 mmHg 96%
    04:00 +12°C° 0 mm 2 mps 758 mmHg 95%
    05:00 +13°C° 0 mm 2 mps 758 mmHg 92%
    06:00 +14°C° 0 mm 2 mps 759 mmHg 89%
    07:00 +15°C° 0 mm 2 mps 759 mmHg 86%
    08:00 +16°C° 0 mm 2 mps 759 mmHg 80%
    09:00 +18°C° 0 mm 2 mps 759 mmHg 73%
    10:00 +20°C° 0 mm 2 mps 759 mmHg 67%
    11:00 +20°C° 0.2 mm 2 mps 758 mmHg 65%
    12:00 +21°C° 0.2 mm 2 mps 758 mmHg 62%
    13:00 +23°C° 0.2 mm 1 mps 758 mmHg 60%
    14:00 +21°C° 0.2 mm 2 mps 758 mmHg 64%
    15:00 +20°C° 0.2 mm 2 mps 758 mmHg 69%
    16:00 +20°C° 0.2 mm 2 mps 758 mmHg 73%
    17:00 +19°C° 0.1 mm 2 mps 758 mmHg 77%
    18:00 +19°C° 0.1 mm 2 mps 758 mmHg 80%
    19:00 +18°C° 0.1 mm 2 mps 758 mmHg 83%
    20:00 +17°C° 0 mm 2 mps 758 mmHg 86%
    21:00 +16°C° 0 mm 2 mps 758 mmHg 89%
    22:00 +14°C° 0 mm 2 mps 758 mmHg 91%
    23:00 +14°C° 0 mm 2 mps 758 mmHg 92%
    Show more